Skip Page Navigation
NASA JPL Caltech
NASA Logo - Jet Propulsion Laboratory + View the NASA Portal
+ Center for Near-Earth Object Studies
JPL Home Earth Solar System Stars & Galaxies Technology
JPL Solar System Dynamics
BODIES ORBITS EPHEMERIDES TOOLS PHYSICAL DATA DISCOVERY FAQ SITE MAP

Significant website upgrade scheduled for September 27. More details available here.

JPL Small-Body Database Browser
Search: [ help ]  
351930 (2006 TM24)
Classification: Main-belt Asteroid          SPK-ID: 2351930
Ephemeris | Orbit Diagram | Orbital Elements | Mission Design | Physical Parameters | Discovery Circumstances | Close-Approach Data ]

[ show orbit diagram ]
Orbital Elements at Epoch 2459396.5 (2021-Jul-01.0) TDB
Reference: JPL 18 (heliocentric ecliptic J2000)
 Element Value Uncertainty (1-sigma)   Units 
e .1212540047888058 4.723e-08  
a 3.056374964790869 3.4634e-08 au
q 2.685777260173731 1.566e-07 au
i 10.87048302599474 5.2026e-06 deg
node 220.351623154909 2.4836e-05 deg
peri 101.9060829599357 3.2218e-05 deg
M 324.7186865692284 2.2898e-05 deg
tp 2459587.771657345936
(2022-Jan-08.27165735)
0.00012572 TDB
period 1951.678946977089
5.34
3.3174e-05
9.083e-08
d
yr
n .1844565677964584 3.1353e-09 deg/d
Q 3.426972669408007 3.8833e-08 au
  Orbit Determination Parameters
   # obs. used (total)      300  
   data-arc span      6683 days (18.30 yr)  
   first obs. used      2003-03-30  
   last obs. used      2021-07-16  
   planetary ephem.      DE441  
   SB-pert. ephem.      SB441-N16  
   condition code      0  
   norm. resid. RMS      .51135  
   source      ORB  
   producer      Otto Matic  
   solution date      2021-Aug-25 22:52:43  

Additional Information
 Earth MOID = 1.70047 au 
 Jupiter MOID = 1.95345 au 
 T_jup = 3.197 
[ hide covariance matrix ]
Orbital Elements at Epoch 2457653.5 (2016-Sep-22.0) TDB
Reference: JPL 18 (heliocentric ecliptic J2000)
 Element Value Uncertainty (1-sigma)   Units 
e .1197473708922615 4.7273e-08  
q 2.691539457972958 1.5661e-07 au
tp 2457636.511047642063
(2016-Sep-05.01104764)
0.000114 TDB
node 220.3751271754991 2.4831e-05 deg
peri 102.033420016079 3.2352e-05 deg
i 10.86936973929299 5.202e-06 deg
  Orbit Determination Parameters
   # obs. used (total)      300  
   data-arc span      6683 days (18.30 yr)  
   first obs. used      2003-03-30  
   last obs. used      2021-07-16  
   planetary ephem.      DE441  
   SB-pert. ephem.      SB441-N16  
   condition code      0  
   norm. resid. RMS      .51135  
   source      ORB  
   producer      Otto Matic  
   solution date      2021-Aug-25 22:52:43  

Additional Information
 Jupiter MOID = 1.95345 au 
 T_jup = 3.197 
Orbit Covariance (6×6)
  e q tp node peri i
e 2.234775871797709E-15 -7.271600476583283E-15 7.144488309167686E-13 4.599534189096972E-15 1.769048531124438E-13 -4.828204659461868E-15
q -7.271600476583283E-15 2.452825490810132E-14 -1.268726015828261E-12 -1.712182632706842E-14 -3.831652133269933E-13 1.842056957007401E-14
tp 7.144488309167686E-13 -1.268726015828261E-12 1.299572389263262E-8 1.977118867105818E-11 2.389450199069241E-9 -2.473685253276501E-14
node 4.599534189096972E-15 -1.712182632706842E-14 1.977118867105818E-11 6.165696847530986E-10 -6.016792460995328E-10 -2.628773231333982E-11
peri 1.769048531124438E-13 -3.831652133269933E-13 2.389450199069241E-9 -6.016792460995328E-10 1.046645991278564E-9 2.57743249351581E-11
i -4.828204659461868E-15 1.842056957007401E-14 -2.473685253276501E-14 -2.628773231333982E-11 2.57743249351581E-11 2.706084429050321E-11

Ephemeris | Orbit Diagram | Orbital Elements | Mission Design | Physical Parameters | Discovery Circumstances | Close-Approach Data ]

Physical Parameter Table
Parameter Symbol Value Units Sigma Reference Notes
absolute magnitude H 15.77   n/a MPO638890  

351930 (2006 TM24)          Discovered 2006-Oct-12 by Spacewatch at Kitt Peak
Reference: 20130127/Numbers.arcLast Updated: 2013-01-31

[ show close-approach data ]
Ephemeris | Orbit Diagram | Orbital Elements | Mission Design | Physical Parameters | Discovery Circumstances | Close-Approach Data ]
ABOUT SSD CREDITS/AWARDS PRIVACY/COPYRIGHT GLOSSARY LINKS
FirstGov 2021-Sep-21 14:29 UT
(server date/time)  
NASA Home Page
Site Manager:   Ryan S. Park
Webmaster  Alan B. Chamberlin